Regional Weather Roundup
Issued by NWS

Home | Current Version | Previous Version | Text Only | Print | Product List | Glossary Off
Versions: 1 2 3 4 5 6 7 8 9 10 11 12 13 14 15 16 17 18 19 20 21 22 23 24 25 26 27

000
ASUS45 KSLC 170310
RWRUT

UTAH REGIONAL WEATHER ROUNDUP
NATIONAL WEATHER SERVICE SALT LAKE CITY UT
800 PM MST TUE JAN 16 2018

UTZ001>011-023>025-170400-

NORTHERN UTAH

CITY           SKY/WX    TMP DP  RH WIND       PRES   REMARKS
BRIGHAM CITY   MOCLDY    38  28  68 CALM      30.32R
HILL AFB       MOCLDY    36  19  51 SE12      30.30S WCI  28
LOGAN          MOCLDY    37  25  61 CALM      30.31F
OGDEN          MOCLDY    36  24  62 CALM      30.30S
SALT LAKE CITY MOCLDY    40  28  62 CALM      30.30F
TOOELE VALLEY  MOCLDY    32  30  93 SW3       30.32R
WENDOVER       CLEAR     30  23  75 W5        30.32S WCI  25
HEBER CITY       N/A     30  21  69 CALM      30.29S
WEST JORDAN    MOCLDY    36  28  71 CALM      30.31F

$$

UTZ011>015-024>027-170400-

CENTRAL/NORTHEAST UTAH

CITY           SKY/WX    TMP DP  RH WIND       PRES   REMARKS
PROVO AIRPORT  PTCLDY    36  27  69 CALM      30.31S
MOAB/CANYONLAN CLEAR     26  18  71 W3        30.33R
DELTA          PTCLDY    36  30  80 W3        30.30R
PRICE          CLEAR     26  18  71 NE6       30.32S WCI  19
ROOSEVELT      CLEAR     21  12  68 CALM      30.38S
VERNAL         CLEAR     21   8  57 W6        30.35R WCI  13

$$

UTZ013>016-019>022-027-170400-

SOUTHERN UTAH

CITY           SKY/WX    TMP DP  RH WIND       PRES   REMARKS
BRYCE CANYON   MOCLDY    33  24  69 S5        30.32S WCI  29
CEDAR CITY     PTCLDY    36  30  79 NW10      30.26S WCI  28
MILFORD        PTCLDY    37  30  75 NW7       30.28R WCI  32
ST GEORGE      PTCLDY    52  36  54 N3        30.24R
HANKSVILLE     PTCLDY    34   9  35 CALM      30.37R
BLANDING         N/A     25  17  72 NW5       30.41R WCI  19

$$

REGIONAL REPORTS     COLORADO/ARIZONA

CITY           SKY/WX    TMP DP  RH WIND       PRES   REMARKS
CRAIG, CO      CLEAR     10   1  67 CALM      30.34R
GRAND JUNCTION CLEAR     29  16  58 CALM      30.33S
RIFLE, CO      CLEAR     26  15  63 SE3       30.35R
MONTROSE, CO   CLEAR     23  15  71 SE8       30.35R WCI  14
CORTEZ, CO     CLEAR     23  18  81 NE8       30.34S WCI  14
COLORADO CITY    N/A     43  32  65 CALM      30.29S
PAGE, AZ       MOCLDY    43  16  33 CALM      30.29F
GRAND CANYON   MOCLDY    34  19  54 CALM      30.30F
KINGMAN, AZ    CLEAR     46  32  58 E6        30.22S
FLAGSTAFF, AZ  CLOUDY    35  23  61 CALM      30.30S

$$

REGIONAL REPORTS    NEVADA/IDAHO/WYOMING

CITY           SKY/WX    TMP DP  RH WIND       PRES   REMARKS
LAS VEGAS, NV  MOCLDY    58  36  43 SW6       30.20R
ELY, NY        MOCLDY    29  21  72 SE9       30.30R WCI  20
ELKO, NV       MOCLDY    34  31  88 E6        30.29R WCI  29
POCATELLO, ID  CLOUDY    35  27  72 NE6       30.33R WCI  30
BURLEY, ID     CLOUDY    39  31  72 N3        30.31R
FORT BRIDGER,    N/A     24  11  57 W8        30.33R WCI  15
EVANSTON, WY   PTCLDY    28  15  58 E3        30.31R
ROCK SPRINGS,  CLEAR     21   7  54 SW12      30.29S WCI   9

$$




USA.gov is the U.S. government's official web portal to all federal, state and local government web resources and services.